FW0675 Weather Reports


time (UTC)temp
C
wind
direction
speed
KPH
gust
KPH
rain 1hr
cm
rain 24hr
cm
rain mn
cm
humidity
%
barometer
mb
20260507040654 11 299 0.0 0.0 0.00 0.00 0.00 83 1021.6
20260507040154 11 300 0.0 0.0 0.00 0.00 0.00 83 1021.6
20260507035654 12 285 0.0 0.0 0.00 0.00 0.00 82 1021.5
20260507035153 12 336 0.0 0.0 0.00 0.00 0.00 82 1021.6
20260507034655 12 309 0.0 0.0 0.00 0.00 0.00 82 1021.5
20260507034153 12 309 0.0 0.0 0.00 0.00 0.00 82 1021.5
20260507033152 12 297 0.0 0.0 0.00 0.00 0.00 81 1021.3
20260507032653 12 315 0.0 0.0 0.00 0.00 0.00 81 1021.1
20260507032152 12 311 0.0 0.0 0.00 0.00 0.00 81 1021.1
20260507031651 12 317 0.0 0.0 0.00 0.00 0.00 81 1021.0
20260507031152 12 317 0.0 0.0 0.00 0.00 0.00 81 1021.0
20260507030652 13 317 0.0 0.0 0.00 0.00 0.00 81 1020.9
20260507030151 13 1 0.0 0.0 0.00 0.00 0.00 80 1021.0
20260507025652 13 311 0.0 0.0 0.00 0.00 0.00 80 1020.9
20260507024155 13 351 0.0 0.0 0.00 0.00 0.00 80 1020.7
20260507023649 13 321 0.0 0.0 0.00 0.00 0.00 80 1020.8
20260507023151 13 322 0.0 0.0 0.00 0.00 0.00 79 1020.8
20260507022653 13 315 0.0 0.0 0.00 0.00 0.00 79 1020.8
20260507021650 13 330 0.0 0.0 0.00 0.00 0.00 80 1020.6
20260507021148 14 330 0.0 0.0 0.00 0.00 0.00 79 1020.6
20260507020649 14 148 0.0 0.0 0.00 0.00 0.00 79 1020.6
20260507015651 15 37 0.0 0.0 0.00 0.00 0.00 79 1020.6
20260507015148 15 305 0.0 0.0 0.00 0.00 0.00 79 1020.6
20260507014646 15 302 0.0 0.0 0.00 0.00 0.00 79 1020.6
20260507014151 15 302 0.0 0.0 0.00 0.00 0.00 79 1020.6
20260507013647 15 301 0.0 0.0 0.00 0.00 0.00 79 1020.6
20260507013150 15 301 0.0 0.0 0.00 0.00 0.00 78 1020.6
20260507012645 15 300 0.0 0.0 0.00 0.00 0.00 77 1020.6
20260507011647 16 300 0.0 0.0 0.00 0.00 0.00 76 1020.6
20260507010647 16 285 0.0 0.0 0.00 0.00 0.00 75 1020.6
20260507010146 16 290 0.0 0.0 0.00 0.00 0.00 76 1020.6
20260507005645 16 311 0.0 0.0 0.00 0.00 0.00 76 1020.6
20260507005147 16 47 0.0 0.0 0.00 0.00 0.00 75 1020.6
20260507004146 17 297 0.0 0.0 0.00 0.00 0.00 75 1020.6
20260507003645 17 307 0.0 0.0 0.00 0.00 0.00 75 1020.5
20260507003148 17 335 0.0 0.0 0.00 0.00 0.00 74 1020.6
20260507002646 17 307 0.0 0.0 0.00 0.00 0.00 75 1020.4
20260507002144 17 296 0.0 0.0 0.00 0.00 0.00 75 1020.5
20260507001647 17 317 0.0 0.0 0.00 0.00 0.00 75 1020.4
20260507001149 17 313 0.0 0.0 0.00 0.00 0.00 75 1020.4
20260507000644 17 314 0.0 0.0 0.00 0.00 0.00 74 1020.4
20260507000143 17 258 0.0 0.0 0.00 0.00 0.00 73 1020.4
20260506235643 17 294 0.0 0.0 0.00 0.00 0.00 74 1020.4
20260506235143 18 268 0.0 0.0 0.00 0.00 0.00 74 1020.4
20260506234644 18 228 0.0 0.0 0.00 0.00 0.00 73 1020.4
20260506234142 18 298 0.0 0.0 0.00 0.00 0.00 72 1020.4
20260506233643 18 319 0.0 0.0 0.00 0.00 0.00 73 1020.4
20260506233144 18 284 0.0 0.0 0.00 0.00 0.00 72 1020.4
20260506232643 18 299 0.0 0.0 0.00 0.00 0.00 73 1020.4
20260506232141 18 1 0.0 0.0 0.00 0.00 0.00 76 1020.3
20260506231641 18 305 0.0 0.0 0.00 0.00 0.00 73 1020.4
20260506231142 19 295 0.0 0.0 0.00 0.00 0.00 71 1020.4
20260506230642 19 314 0.0 0.0 0.00 0.00 0.00 75 1020.5
20260506230140 18 8 0.0 0.0 0.00 0.00 0.00 76 1020.4
20260506225640 18 89 0.0 0.0 0.00 0.00 0.00 74 1020.5
20260506225142 18 305 0.0 0.0 0.00 0.00 0.00 72 1020.5
20260506223641 18 305 0.0 0.0 0.00 0.00 0.00 73 1020.7
20260506223141 18 295 0.0 0.0 0.00 0.00 0.00 76 1020.6
20260506222139 18 300 0.0 0.0 0.00 0.00 0.00 72 1020.8
20260506221638 18 302 0.0 0.0 0.00 0.00 0.00 74 1020.7
20260506221139 18 302 0.0 0.0 0.00 0.00 0.00 72 1020.8
20260506220640 18 300 0.0 0.0 0.00 0.00 0.00 72 1020.7
20260506220140 18 300 0.0 0.0 0.00 0.00 0.00 76 1020.7
20260506215137 18 6 0.0 0.0 0.00 0.00 0.00 76 1020.7
20260506214637 18 6 0.0 0.0 0.00 0.00 0.00 75 1020.6
20260506214137 19 319 0.0 0.0 0.00 0.00 0.00 75 1020.6
20260506213638 19 319 0.0 0.0 0.00 0.00 0.00 74 1020.7
20260506213138 19 319 0.0 0.0 0.00 0.00 0.00 75 1020.7
20260506212637 19 295 0.0 0.0 0.00 0.00 0.00 75 1020.7
20260506212138 19 342 0.0 0.0 0.00 0.00 0.00 73 1020.7
20260506211638 19 124 0.0 0.0 0.00 0.00 0.00 74 1020.7
20260506211138 19 118 0.0 0.0 0.00 0.00 0.00 76 1020.7
20260506210637 19 119 0.0 0.0 0.00 0.00 0.00 76 1020.7
20260506210136 18 112 0.0 0.0 0.00 0.00 0.00 77 1020.7
20260506205637 18 120 0.0 0.0 0.00 0.00 0.00 76 1020.7
20260506205137 18 297 0.0 0.0 0.00 0.00 0.00 74 1020.7
20260506204638 18 245 0.0 0.0 0.00 0.00 0.00 75 1020.7
20260506204137 18 307 0.0 0.0 0.00 0.00 0.00 77 1020.7
20260506203637 17 307 0.0 0.0 0.00 0.00 0.00 78 1020.7
20260506203136 17 307 0.0 0.0 0.00 0.00 0.00 76 1020.9
20260506202137 17 250 0.0 0.0 0.00 0.00 0.00 77 1020.9
20260506201638 18 128 0.0 0.0 0.00 0.00 0.00 79 1020.9
20260506201137 18 128 0.0 0.0 0.00 0.00 0.00 79 1020.9
20260506200638 18 128 0.0 0.0 0.00 0.00 0.00 78 1020.9
20260506200137 18 128 0.0 0.0 0.00 0.00 0.00 78 1020.8
20260506195636 18 128 0.0 0.0 0.00 0.00 0.00 77 1020.8
20260506195137 18 134 0.0 0.0 0.00 0.00 0.00 78 1020.8
20260506194636 18 134 0.0 0.0 0.00 0.00 0.00 77 1020.8
20260506194137 18 134 0.0 0.0 0.00 0.00 0.00 76 1020.8
20260506193637 18 122 0.0 0.0 0.00 0.00 0.00 77 1020.8
20260506193137 18 228 0.0 0.0 0.00 0.00 0.00 78 1020.9
20260506192641 18 299 0.0 0.0 0.00 0.00 0.00 76 1020.9
20260506192136 18 117 0.0 0.0 0.00 0.00 0.00 78 1020.9
20260506191637 18 117 0.0 0.0 0.00 0.00 0.00 76 1021.0
20260506191136 18 114 0.0 0.0 0.00 0.00 0.00 76 1020.9
20260506190637 18 136 0.0 0.0 0.00 0.00 0.00 76 1020.9
20260506190137 18 223 0.0 0.0 0.00 0.00 0.00 76 1021.0
20260506185637 18 84 0.0 0.0 0.00 0.00 0.00 78 1020.8
20260506185137 18 89 0.0 0.0 0.00 0.00 0.00 78 1020.9
20260506184638 18 109 0.0 0.0 0.00 0.00 0.00 77 1020.9
20260506183638 17 336 0.0 0.0 0.00 0.00 0.00 77 1020.9
20260506183136 17 98 0.0 0.0 0.00 0.00 0.00 80 1021.0
20260506182636 16 122 0.0 0.0 0.00 0.00 0.00 81 1020.8
20260506181637 16 295 0.0 0.0 0.00 0.00 0.00 81 1021.0
20260506181136 16 291 0.0 0.0 0.00 0.00 0.00 81 1021.0
20260506180136 16 236 0.0 0.0 0.00 0.00 0.00 81 1020.9
20260506175638 16 129 0.0 0.0 0.00 0.00 0.00 80 1020.8
20260506175137 16 109 0.0 0.0 0.00 0.00 0.00 81 1020.9
20260506174634 15 109 0.0 0.0 0.00 0.00 0.00 80 1020.7
20260506174136 15 121 0.0 0.0 0.00 0.00 0.00 81 1020.7
20260506173634 15 106 0.0 0.0 0.00 0.00 0.00 81 1020.6
20260506173132 15 86 0.0 0.0 0.00 0.00 0.00 81 1020.7
20260506172632 15 83 0.0 0.0 0.00 0.00 0.00 81 1020.8
20260506172134 15 304 0.0 0.0 0.00 0.00 0.00 81 1020.8
20260506171632 15 332 0.0 0.0 0.00 0.00 0.00 81 1020.8
20260506171132 15 332 0.0 0.0 0.00 0.00 0.00 81 1020.8
20260506170633 15 332 0.0 0.0 0.00 0.00 0.00 81 1020.8
20260506170134 15 331 0.0 0.0 0.00 0.00 0.00 81 1020.8
20260506165632 14 359 0.0 0.0 0.00 0.00 0.00 82 1020.8
20260506165131 14 359 0.0 0.0 0.00 0.00 0.00 82 1020.7
20260506164632 14 359 0.0 0.0 0.00 0.00 0.00 82 1020.8
20260506164131 14 359 0.0 0.0 0.00 0.00 0.00 82 1020.7
20260506163630 14 359 0.0 0.0 0.00 0.00 0.00 81 1020.6
20260506163131 13 278 0.0 0.0 0.00 0.00 0.00 82 1020.6
20260506162131 13 283 0.0 0.0 0.00 0.00 0.00 83 1020.6
20260506161631 13 53 0.0 0.0 0.00 0.00 0.00 81 1020.7
20260506161130 13 54 0.0 0.0 0.00 0.00 0.00 83 1020.8
20260506160630 13 335 0.0 0.0 0.00 0.00 0.00 83 1020.8
20260506160128 13 336 0.0 0.0 0.00 0.00 0.00 83 1020.9
20260506155628 13 37 0.0 0.0 0.00 0.00 0.00 84 1020.7
20260506155129 13 37 0.0 0.0 0.00 0.00 0.00 84 1020.8
20260506154121 13 130 0.0 0.0 0.00 0.00 0.00 84 1020.6
20260506153620 13 130 0.0 0.0 0.00 0.00 0.00 84 1020.5
20260506153122 13 130 0.0 0.0 0.00 0.00 0.00 84 1020.3
20260506152618 13 130 0.0 0.0 0.00 0.00 0.00 85 1020.3
20260506152119 12 130 0.0 0.0 0.00 0.00 0.00 85 1020.4
20260506151618 12 130 0.0 0.0 0.00 0.00 0.00 85 1020.0
20260506150118 12 319 0.0 0.0 0.00 0.00 0.00 84 1020.2
20260506145616 12 315 0.0 0.0 0.00 0.00 0.00 86 1020.4
20260506145117 12 315 0.0 0.0 0.00 0.00 0.00 87 1020.4
20260506144118 12 315 0.0 0.0 0.00 0.00 0.00 87 1020.4
20260506143616 12 315 0.0 0.0 0.00 0.00 0.00 87 1020.7
20260506142616 11 315 0.0 0.0 0.00 0.00 0.00 87 1020.6
20260506141115 11 315 0.0 0.0 0.00 0.00 0.00 87 1020.5
20260506140615 11 315 0.0 0.0 0.00 0.00 0.00 87 1020.5
20260506140114 11 315 0.0 0.0 0.00 0.00 0.00 87 1020.4
20260506134615 11 306 0.0 0.0 0.00 0.00 0.00 88 1020.1
20260506134115 11 305 0.0 0.0 0.00 0.00 0.00 88 1019.9
20260506133116 11 305 0.0 0.0 0.00 0.00 0.00 88 1019.9
20260506132615 11 305 0.0 0.0 0.00 0.00 0.00 88 1019.9
20260506132112 11 305 0.0 0.0 0.00 0.00 0.00 88 1019.9
20260506131612 11 305 0.0 0.0 0.00 0.00 0.00 88 1019.9
20260506131112 11 305 0.0 0.0 0.00 0.00 0.00 88 1019.9
20260506130612 11 305 0.0 0.0 0.00 0.00 0.00 88 1019.8
20260506130114 11 303 0.0 0.0 0.00 0.00 0.00 88 1019.8
20260506125613 11 296 0.0 0.0 0.00 0.00 0.00 88 1019.7
20260506125113 11 287 0.0 0.0 0.00 0.00 0.00 88 1019.6
20260506124614 11 308 0.0 0.0 0.00 0.00 0.00 88 1019.7
20260506124114 11 308 0.0 0.0 0.00 0.00 0.00 88 1019.7
20260506123612 11 308 0.0 0.0 0.00 0.00 0.00 88 1019.5
20260506123110 11 307 0.0 0.0 0.00 0.00 0.00 88 1019.4
20260506122610 11 307 0.0 0.0 0.00 0.00 0.00 88 1019.5
20260506121611 11 307 0.0 0.0 0.00 0.00 0.00 88 1019.5
20260506121112 11 307 0.0 0.0 0.00 0.00 0.00 88 1019.4
20260506120611 11 316 0.0 0.0 0.00 0.00 0.00 88 1019.4
20260506120110 11 316 0.0 0.0 0.00 0.00 0.00 88 1019.5
20260506115610 11 316 0.0 0.0 0.00 0.00 0.00 88 1019.4
20260506115110 11 316 0.0 0.0 0.00 0.00 0.00 88 1019.5
20260506113609 11 316 0.0 0.0 0.00 0.00 0.00 87 1019.3
20260506112610 12 316 0.0 0.0 0.00 0.00 0.00 87 1019.3
20260506112108 12 316 0.0 0.0 0.00 0.00 0.00 87 1019.3
20260506111107 12 316 0.0 0.0 0.00 0.00 0.00 87 1019.2
20260506110109 12 319 0.0 0.0 0.00 0.00 0.00 87 1019.0
20260506105609 12 319 0.0 0.0 0.00 0.00 0.00 86 1019.0
20260506105107 12 307 0.0 0.0 0.00 0.00 0.00 86 1018.9
20260506104608 12 305 0.0 0.0 0.00 0.00 0.00 86 1018.8
20260506103618 12 307 0.0 0.0 0.00 0.00 0.00 86 1018.8
20260506103119 12 313 0.0 0.0 0.00 0.00 0.00 86 1018.7
20260506102619 12 87 0.0 0.0 0.00 0.00 0.00 86 1018.7
20260506102128 12 319 0.0 0.0 0.00 0.00 0.00 86 1018.7
20260506101631 12 304 0.0 0.0 0.00 0.00 0.00 86 1018.6
20260506101116 12 304 0.0 0.0 0.00 0.00 0.00 86 1018.5
20260506100616 12 302 0.0 0.0 0.00 0.00 0.00 86 1018.5
20260506100115 12 301 0.0 0.0 0.00 0.00 0.00 86 1018.4
20260506095617 12 303 0.0 0.0 0.00 0.00 0.00 85 1018.3
20260506095104 12 302 0.0 0.0 0.00 0.00 0.00 85 1018.3
20260506093605 12 301 0.0 0.0 0.00 0.00 0.00 85 1018.0
20260506093105 12 306 0.0 0.0 0.00 0.00 0.00 85 1018.0
20260506092603 12 306 0.0 0.0 0.00 0.00 0.00 85 1018.1
20260506091600 12 302 0.0 0.0 0.00 0.00 0.00 85 1018.0
20260506091102 12 302 0.0 0.0 0.00 0.00 0.00 85 1018.0
20260506090559 12 304 0.0 0.0 0.00 0.00 0.00 85 1018.1
20260506090059 12 306 0.0 0.0 0.00 0.00 0.00 85 1018.1
20260506085558 12 306 0.0 0.0 0.00 0.00 0.00 85 1018.0
20260506085057 12 306 0.0 0.0 0.00 0.00 0.00 85 1018.0
20260506084558 12 306 0.0 0.0 0.00 0.00 0.00 85 1018.1
20260506083556 12 301 0.0 0.0 0.00 0.00 0.00 85 1018.0
20260506083055 12 307 0.0 0.0 0.00 0.00 0.00 85 1018.0
20260506082555 12 307 0.0 0.0 0.00 0.00 0.00 85 1017.9
20260506082055 12 307 0.0 0.0 0.00 0.00 0.00 85 1018.0
20260506081556 12 306 0.0 0.0 0.00 0.00 0.00 85 1018.0
20260506080553 12 303 0.0 0.0 0.00 0.00 0.00 85 1017.9
20260506073051 12 297 0.0 0.0 0.00 0.00 0.00 85 1017.6
20260506072551 12 297 0.0 0.0 0.00 0.00 0.00 85 1017.5
20260506072052 12 297 0.0 0.0 0.00 0.00 0.00 85 1017.5
20260506071052 12 297 0.0 0.0 0.00 0.00 0.00 86 1017.6
20260506070554 12 285 0.0 0.0 0.00 0.00 0.00 86 1017.5
20260506062043 13 285 0.0 0.0 0.00 0.00 0.00 84 1017.3
20260506061544 13 285 0.0 0.0 0.00 0.00 0.00 84 1017.2
20260506061044 13 285 0.0 0.0 0.00 0.00 0.00 83 1017.1
20260506060541 13 285 0.0 0.0 0.00 0.00 0.00 83 1017.2
20260506051040 14 255 0.0 0.0 0.00 0.00 0.00 84 1017.1
20260506050540 14 248 0.0 0.0 0.00 0.00 0.00 84 1017.0
20260506045039 13 245 0.0 0.0 0.00 0.00 0.00 86 1016.9
20260506044040 13 234 0.0 0.0 0.00 0.00 0.00 88 1016.9
20260506043540 13 234 0.0 0.0 0.00 0.00 0.00 88 1016.8
20260506043040 13 234 0.0 0.0 0.00 0.00 0.00 88 1016.8
20260506042538 13 234 0.0 0.0 0.00 0.00 0.00 88 1016.7
20260506042037 13 234 0.0 0.0 0.00 0.00 0.00 88 1016.7
20260506041538 13 234 0.0 0.0 0.00 0.00 0.00 88 1016.6